Terminal Aerodrome Forecast
Issued by NWS

Home | Current Version | Previous Version | Text Only | Print | Product List | Glossary On
Versions: 1 2 3 4 5 6 7 8 9 10 11 12 13 14 15 16 17 18 19 20 21 22 23 24 25 26 27 28 29 30 31 32 33 34 35 36 37 38 39 40 41 42 43 44 45 46 47 48 49
000
FTUS45 KGJT 300520
TAFASE
TAF
KASE 300520Z 3006/3106 21006KT P6SM FEW080 SCT200
     FM301400 VRB03KT P6SM SCT200
     FM301900 33010KT P6SM SCT080 BKN150
     FM310200 18006KT P6SM SCT090 BKN150=

USA.gov is the U.S. government's official web portal to all federal, state and local government web resources and services.